{"data":{"norad_id":57441,"intl_designator":"2023-105M","name":"STARLINK-30160","alt_names":[],"object_type":"PAYLOAD","status":"ACTIVE","operator":null,"country":"US","launch_date":"2023-07-24","launch_site_code":"AFETR","launch_vehicle":null,"mission":null,"orbit_class":"UNKNOWN","rcs_meters":null,"size_class":null,"mass_kg":null,"dimensions":null,"purposes":["comms"],"wikipedia_slug":null,"has_3d_model":false,"image_url":null,"decayed_at":null,"tle_current":{"epoch":"2026-05-25T04:50:04.765056Z","epoch_age_seconds":50942,"freshness":"FRESH","line1":"1 57441U 23105M   26145.20144404  .00001176  00000+0  52263-4 0  9995","line2":"2 57441  43.0046 194.5423 0002095 283.5940  76.4678 15.27576903157045","mean_motion":15.27576903,"eccentricity":0.0002095,"inclination_deg":43.0046,"raan_deg":194.5423,"arg_perigee_deg":283.594,"mean_anomaly_deg":76.4678,"bstar":5.2263e-5,"rev_number":15704,"period_min":94.266939829477,"perigee_km":481.62094915753,"apogee_km":484.49579001739,"semimajor_km":6861.1953695875,"source":"CELESTRAK","updated_at":"2026-05-25T13:38:18.320239Z"}}}